Weather History for KY50 - September, 2013

Change the Weather History Date:

Monday, September 30, 2013

  Actual Average (KPCZ) Record (KPCZ)
Temperature  
Mean Temperature 55 °F -  
Max Temperature 72 °F 65 °F 83 °F (1971)
Min Temperature 37 °F 44 °F 27 °F (1993)
Degree Days  
Heating Degree Days 10    
Growing Degree Days 5 (Base 50)    
Moisture  
Dew Point 45 °F    
Average Humidity 59    
Maximum Humidity 100    
Minimum Humidity 33    
Precipitation  
Precipitation 0.00 in - - ()
Sea Level Pressure  
Sea Level Pressure 29.89 in    
Wind  
Wind Speed 4 mph (South)    
Max Wind Speed 15 mph    
Max Gust Speed 24 mph    
Visibility 10 miles    
Events      
Averages and records for this station are not official NWS values.
T = Trace of Precipitation, MM = Missing Value Source: NWS Daily Summary

Daily Weather History Graph

Daily Weather History Graph

Search for Another Location

Airport or City:

Trip Planner

Search our weather history database for the weather conditions in past years. The results will help you decide how hot, cold, wet, or windy it might be!

Date:

Astronomy

Sep. 30, 2013 Rise Set
Actual Time 6:54 AM CDT 6:39 PM CDT
Civil Twilight 6:25 AM CDT 7:08 PM CDT
Nautical Twilight 5:51 AM CDT 7:41 PM CDT
Astronomical Twilight 5:17 AM CDT 8:15 PM CDT
Moon 2:23 AM CDT (9/30) 4:16 PM CDT (9/30)
Length of Visible Light 12h 42m
Length of Day
11h 45m
Waning Crescent, 19% of the Moon is Illuminated
Sep 30
Waning Crescent
Oct 4
New
Oct 11
First Quarter
Oct 18
Full
Oct 26
Last Quarter

Hourly Weather History & Observations

Time (CDT) Temp. Dew Point Humidity Pressure Visibility Wind Dir Wind Speed Gust Speed Precip Events Conditions
12:56 AM 43.0 °F - N/A% 29.98 in 10.0 mi Calm Calm - N/A   Clear
1:56 AM 41.9 °F - N/A% 29.99 in 10.0 mi Calm Calm - N/A   Clear
2:56 AM 41.0 °F - N/A% 29.96 in 10.0 mi Calm Calm - N/A   Clear
3:56 AM 39.9 °F - N/A% 29.97 in 10.0 mi Calm Calm - N/A   Clear
4:56 AM 38.8 °F - N/A% 29.96 in 10.0 mi Calm Calm - N/A   Clear
5:56 AM 38.8 °F - N/A% 29.97 in 10.0 mi Calm Calm - N/A   Clear
6:56 AM 37.9 °F - N/A% 29.96 in 10.0 mi Calm Calm - N/A   Clear
7:56 AM 43.0 °F - N/A% 29.96 in 10.0 mi Calm Calm - N/A   Clear
8:56 AM 50.0 °F 50.0 °F 100% 29.95 in 10.0 mi SSE 3.5 mph - N/A   Clear
9:56 AM 59.9 °F 46.9 °F 62% 29.92 in 10.0 mi South 11.5 mph - N/A   Clear
10:56 AM 65.8 °F 45.0 °F 47% 29.93 in 10.0 mi SSW 10.4 mph - N/A   Clear
11:56 AM 68.0 °F 43.9 °F 42% 29.91 in 10.0 mi South 12.7 mph 18.4 mph N/A   Clear
12:56 PM 70.0 °F 43.9 °F 39% 29.88 in 10.0 mi South 15.0 mph 20.7 mph N/A   Clear
1:56 PM 70.9 °F 41.9 °F 35% 29.85 in 10.0 mi South 13.8 mph 24.2 mph N/A   Clear
2:56 PM 72.9 °F 41.9 °F 33% 29.84 in 10.0 mi SSW 15.0 mph 20.7 mph N/A   Clear
3:56 PM 73.4 °F 44.6 °F 36% 29.82 in 10.0 mi South 10.4 mph - N/A   Clear
4:56 PM 70.9 °F 43.9 °F 38% 29.81 in 10.0 mi South 12.7 mph - N/A   Clear
5:56 PM 70.0 °F 45.0 °F 41% 29.81 in 10.0 mi South 5.8 mph 17.3 mph N/A   Clear
6:56 PM 64.9 °F 45.0 °F 48% 29.80 in 10.0 mi South 5.8 mph - N/A   Clear
7:56 PM 59.9 °F 45.0 °F 58% 29.79 in 10.0 mi South 5.8 mph - N/A   Clear
8:56 PM 59.0 °F 45.0 °F 60% 29.81 in 10.0 mi South 3.5 mph - N/A   Clear
9:56 PM 48.9 °F 48.9 °F 100% 29.81 in 10.0 mi Calm Calm - N/A   Clear
10:56 PM 46.9 °F 46.9 °F 100% 29.81 in 10.0 mi Calm Calm - N/A   Clear
11:56 PM 46.9 °F 46.9 °F 100% 29.82 in 10.0 mi Calm Calm - N/A   Clear